Weather History for Corsicana, TX

Change the Weather History Date:

Friday, February 21, 2014

  Actual Average (KACT) Record (KACT)
Temperature  
Mean Temperature 52 °F 52 °F  
Max Temperature 66 °F 63 °F 96 °F (1996)
Min Temperature 37 °F 41 °F 22 °F (1939)
Degree Days  
Heating Degree Days 14 13  
Month to date heating degree days 318  
Since 1 July heating degree days 1726  
Cooling Degree Days 0 0  
Month to date cooling degree days 0  
Year to date cooling degree days 3  
Growing Degree Days 2 (Base 50)    
Moisture  
Dew Point 28 °F    
Average Humidity 45    
Maximum Humidity 76    
Minimum Humidity 19    
Precipitation  
Precipitation 0.00 in 0.09 in 1.20 in (1974)
Month to date precipitation 1.90  
Year to date precipitation 4.02  
Snow  
Snow 0.00 in 0.00 in 1.00 in (1964)
Month to date snowfall 0.4  
Since 1 July snowfall 0.8  
Snow Depth -    
Sea Level Pressure  
Sea Level Pressure 30.11 in    
Wind  
Wind Speed 5 mph (South)    
Max Wind Speed 13 mph    
Max Gust Speed -    
Visibility 10 miles    
Events      
T = Trace of Precipitation, MM = Missing Value Source: NWS Daily Summary

Daily Weather History Graph

Daily Weather History Graph

Search for Another Location

Airport:

Trip Planner

Search our weather history database for the weather conditions in past years. The results will help you decide how hot, cold, wet, or windy it might be!

Date:

Astronomy

Feb. 21, 2014 Rise Set
Actual Time 7:01 AM CST 6:17 PM CST
Civil Twilight 6:36 AM CST 6:41 PM CST
Nautical Twilight 6:08 AM CST 7:10 PM CST
Astronomical Twilight 5:40 AM CST 7:38 PM CST
Moon No Moon Rise 10:50 AM CST (2/21)
Length of Visible Light 12h 04m
Length of Day
11h 15m
Waning Gibbous, 60% of the Moon is Illuminated
Feb 21
Waning Gibbous
Feb 22
Last Quarter
Mar 1
New
Mar 8
First Quarter
Mar 16
Full

Hourly Weather History & Observations

Time (CST) Temp. Windchill Dew Point Humidity Pressure Visibility Wind Dir Wind Speed Gust Speed Precip Events Conditions
12:53 AM 45.0 °F 43.5 °F 30.9 °F 58% 30.12 in 10.0 mi NW 3.5 mph - N/A   Clear
1:53 AM 45.0 °F 43.5 °F 28.9 °F 53% 30.12 in 10.0 mi NNW 3.5 mph - N/A   Clear
2:53 AM 41.0 °F - 28.9 °F 62% 30.13 in 10.0 mi Calm Calm - N/A   Clear
3:53 AM 37.9 °F 34.4 °F 28.9 °F 70% 30.13 in 10.0 mi SW 4.6 mph - N/A   Clear
4:53 AM 37.9 °F 35.5 °F 30.0 °F 73% 30.14 in 10.0 mi WSW 3.5 mph - N/A   Clear
5:53 AM 39.9 °F - 30.0 °F 68% 30.16 in 10.0 mi Calm Calm - N/A   Clear
6:53 AM 37.0 °F 34.5 °F 30.0 °F 76% 30.18 in 10.0 mi SSW 3.5 mph - N/A   Clear
7:53 AM 39.0 °F 36.8 °F 32.0 °F 76% 30.19 in 9.0 mi WSW 3.5 mph - N/A   Clear
8:53 AM 50.0 °F - 35.1 °F 57% 30.20 in 10.0 mi Calm Calm - N/A   Clear
9:53 AM 55.9 °F - 23.0 °F 28% 30.19 in 10.0 mi ESE 10.4 mph - N/A   Clear
10:53 AM 59.0 °F - 21.9 °F 24% 30.18 in 10.0 mi ESE 9.2 mph - N/A   Clear
11:53 AM 61.0 °F - 21.0 °F 21% 30.17 in 10.0 mi South 8.1 mph - N/A   Clear
12:53 PM 64.0 °F - 21.9 °F 20% 30.12 in 10.0 mi South 6.9 mph - N/A   Clear
1:53 PM 64.0 °F - 21.0 °F 19% 30.09 in 10.0 mi Variable 5.8 mph - N/A   Clear
2:53 PM 64.9 °F - 21.0 °F 19% 30.07 in 10.0 mi South 8.1 mph - N/A   Clear
3:53 PM 66.0 °F - 24.1 °F 20% 30.06 in 10.0 mi SSW 12.7 mph - N/A   Clear
4:53 PM 64.9 °F - 26.1 °F 23% 30.04 in 10.0 mi South 8.1 mph - N/A   Clear
5:53 PM 60.1 °F - 30.0 °F 32% 30.04 in 10.0 mi SSE 8.1 mph - N/A   Clear
6:53 PM 55.0 °F - 32.0 °F 42% 30.05 in 10.0 mi South 6.9 mph - N/A   Clear
7:53 PM 54.0 °F - 30.9 °F 41% 30.05 in 10.0 mi SSE 4.6 mph - N/A   Clear
8:53 PM 53.1 °F - 33.1 °F 47% 30.06 in 10.0 mi SE 6.9 mph - N/A   Clear
9:53 PM 53.1 °F - 32.0 °F 45% 30.06 in 10.0 mi SSE 8.1 mph - N/A   Clear
10:53 PM 51.1 °F - 35.1 °F 54% 30.06 in 10.0 mi SSE 6.9 mph - N/A   Clear
11:53 PM 50.0 °F - 34.0 °F 54% 30.06 in 10.0 mi SSE 8.1 mph - N/A   Clear